Regional Weather Roundup
Issued by NWS

Home | Current Version | Previous Version | Text Only | Print | Product List | Glossary Off
Versions: 1 2 3 4 5 6 7 8 9 10 11 12 13 14 15 16 17 18 19 20 21 22 23 24 25 26 27 28 29 30 31 32 33 34 35 36 37 38 39 40 41 42 43 44 45 46 47 48 49 50

000
ASUS43 KMPX 030110
RWRMN
WEATHER ROUNDUP FOR MINNESOTA
NATIONAL WEATHER SERVICE TWIN CITIES/CHANHASSEN MN
800 PM CDT SAT MAY 02 2015


NOTE: "FAIR" INDICATES FEW OR NO CLOUDS BELOW 12,000 FEET WITH NO
SIGNIFICANT WEATHER AND/OR OBSTRUCTIONS TO VISIBILITY. N/A MEANS
CURRENT SKY AND/OR WEATHER CONDITIONS ARE NOT AVAILABLE.

MNZ060>063-068>070-030200-
   Twin Cities Metro

CITY           SKY/WX    TMP DP  RH WIND       PRES   REMARKS
TWIN CITIES    PTCLDY    75  44  33 SE7       29.72F
ST PAUL        CLEAR     73  44  35 SE6       29.73F
CRYSTAL        CLEAR     73  45  36 SE7       29.71F
BLAINE         CLEAR     73  45  35 S6        29.73F
LAKEVILLE      PTCLDY    72  45  37 CALM      29.74S
EDEN PRAIRIE   CLEAR     72  45  37 SE8       29.71F
SOUTH ST PAUL  CLEAR     75  42  30 CALM      29.73F
LAKE ELMO      FAIR      70  45  40 S5        29.75S
$$
MNZ001>005-007-008-013>017-022>024-027-028-030200-
   Northwest Minnesota

CITY           SKY/WX    TMP DP  RH WIND       PRES   REMARKS
BEMIDJI        CLOUDY    73  37  27 S10       29.70R
HALLOCK        CLOUDY    72  37  28 S17G26    29.54S
ROSEAU         CLOUDY    72  43  35 S21G26    29.58F
WARROAD        CLOUDY    70  46  43 S13G20    29.60F
THIEF RVR FALL CLOUDY    68  45  42 S20       29.60F
CROOKSTON      CLOUDY    66  50  55 S14       29.60F
DETROIT LAKES  CLOUDY    63  50  63 N15G30    29.79R
MOORHEAD       CLOUDY    66  52  59 E15G22    29.63F
PARK RAPIDS    CLOUDY    73  38  27 S5        29.70R
MAHNOMEN       DRIZZLE   63  49  61 S18       29.66F
$$
MNZ006-009>011-018-025>026-030200-
   North Central Minnesota

CITY           SKY/WX    TMP DP  RH WIND       PRES   REMARKS
BAUDETTE       CLOUDY    68  42  38 S10       29.60F
FLAG ISLAND    CLOUDY    57  48  72 SE8       29.59F
INTL FALLS     MOCLDY    73  35  25 SW9       29.63S
WASKISH        CLOUDY    72  43  35 W17G23    29.67R
BIG FORK       MOCLDY    72  34  25 S9        29.69R
LONGVILLE      MOCLDY    72  37  28 S5        29.71R
GRAND RAPIDS   MOCLDY    70  36  28 S8        29.71R
CRANE LAKE     MOCLDY    73  32  21 S5        29.68R
ORR            MOCLDY    73  30  20 S8        29.66R
COOK           MOCLDY    73  34  23 S12G18    29.70R
WALKER         FAIR      73  37  27 SW5       29.71R
$$
MNZ012-019>021-037-030200-
   Northeast Minnesota

CITY           SKY/WX    TMP DP  RH WIND       PRES   REMARKS
DULUTH         PTCLDY    62  44  51 SE8       29.74S
ELY            CLOUDY    72  34  25 S9        29.71R
HIBBING        MOCLDY    72  32  23 SW6       29.70S
EVELETH        PTCLDY    70  36  28 SW7       29.72S
DULUTH HARBOR  CLEAR     45  39  81 E3        29.75F
TWO HARBORS    PTCLDY    64  48  55 CALM      29.73S
SILVER BAY     MOCLDY    61  45  55 CALM      29.73F
GRAND MARAIS     N/A     43  38  82 E5        29.76F
G MARAIS ARPRT MOCLDY    54  41  62 CALM      29.78F
$$
MNZ029>031-032-039>041-046>048-054>057-064-030200-
   West Central Minnesota

CITY           SKY/WX    TMP DP  RH WIND       PRES   REMARKS
FERGUS FALLS   CLOUDY    70  46  43 N22G38    29.68R HAZE
WHEATON        PTCLDY    79  41  25 S14G20    29.62S
MORRIS         PTCLDY    81  43  26 S13       29.64R
ALEXANDRIA     PTCLDY    73  39  29 S7        29.69R
ELBOW LAKE     FAIR      77  42  27 S15       29.64R
WADENA         CLOUDY    72  41  33 SE6       29.68R
GLENWOOD       CLEAR     73  41  31 S7        29.69R
APPLETON       CLEAR     81  37  21 S9        29.65R
BENSON         PTCLDY    79  36  21 SW12      29.66R
ORTONVILLE     CLEAR     81  37  21 S7        29.64R
MADISON        CLEAR     79  37  22 S14G21    29.66R
WILLMAR          N/A     81  41  24 SW3       29.69S
$$
MNZ033>034-036-042>043-049>051-058-059-030200-
   Central Minnesota

CITY           SKY/WX    TMP DP  RH WIND       PRES   REMARKS
ST CLOUD       CLEAR     70  46  42 SE6       29.70S
SAUK CENTRE    FAIR      72  39  30 SE6       29.69R
PAYNESVILLE    CLEAR     74  38  26 E5        29.69S
AITKIN         PTCLDY    70  39  32 S6        29.70R
PINE RIVER     PTCLDY    72  45  37 S5        29.74R
BRAINERD       PTCLDY    71  41  33 S8        29.70S
STAPLES        PTCLDY    70  39  32 S5        29.70R
LONG PRAIRIE   FAIR      72  41  33 SE7       29.70R
LITTLE FALLS   CLEAR     72  37  28 SE6       29.70S
LITCHFIELD     CLEAR     77  37  24 CALM      29.70S
BUFFALO        CLEAR     74  42  31 SE6       29.71F
MAPLE LAKE     CLEAR     74  48  39 SE3       29.71F
$$
MNZ037-044-045-052-053-030200-
   East Central Minnesota

CITY           SKY/WX    TMP DP  RH WIND       PRES   REMARKS
PRINCETON      CLEAR     73  45  35 SE6       29.71F
MORA           CLEAR     70  39  32 S3        29.73F
CAMBRIDGE      CLEAR     75  52  43 S6        29.71S
RUSH CITY      CLEAR     73  43  34 S5        29.73S
MOOSE LAKE     CLEAR     72  43  35 S3        29.71S
HINCKLEY       FAIR      70  45  40 S5        29.72F
CLOQUET        CLEAR     72  36  26 E3        29.73S
MCGREGOR       PTCLDY    72  41  33 S6        29.72S
$$
MNZ071>073-080-081-089-090-097-098-030200-
   Southwest Minnesota

CITY           SKY/WX    TMP DP  RH WIND       PRES   REMARKS
MONTEVIDEO     CLEAR     81  39  22 SW10      29.67S
GRANITE FALLS  CLEAR     79  43  27 S17G23    29.69S
CANBY          CLEAR     78  41  26 S10G20    29.69R
MARSHALL       CLEAR     77  45  31 S20       29.69F
REDWOOD FALLS  CLEAR     78  45  30 S21G30    29.69S
OLIVIA         CLEAR     75  41  29 SW16      29.69S
PIPESTONE      CLEAR     75  43  31 S16       29.73F
WINDOM         CLEAR     73  50  43 S10       29.75F
WORTHINGTON    CLEAR     72  52  49 S16       29.77S
JACKSON        CLEAR     72  50  46 S12G20    29.78F
TRACY          CLEAR     77  47  35 S16       29.72S
SLAYTON        CLEAR     73  48  40 S15       29.75S
$$
MNZ065>067-074>077-082>085-091>093-030200-
   South Central Minnesota

CITY           SKY/WX    TMP DP  RH WIND       PRES   REMARKS
MANKATO        CLOUDY    73  48  40 S9        29.76S
NEW ULM        PTCLDY    75  45  33 S15G22    29.73S
ST JAMES       CLEAR     75  46  35 S18       29.76S
FAIRMONT       CLEAR     72  45  37 S17       29.78R
GLENCOE        PTCLDY    76  51  40 S16G23    29.71R
FARIBAULT      PTCLDY    75  48  38 S16G22    29.77R
OWATONNA       CLEAR     73  45  35 S15       29.78S
WASECA         PTCLDY    73  45  35 S16G22    29.79S
ALBERT LEA     PTCLDY    73  48  40 S12G17    29.80S
$$
MNZ078>079-086>088-094>096-030200-
   Southeast Minnesota

CITY           SKY/WX    TMP DP  RH WIND       PRES   REMARKS
ROCHESTER      CLEAR     70  48  45 S17       29.82S
RED WING       PTCLDY    75  41  29 SW6       29.75S
STANTON        PTCLDY    76  47  34 S12       29.74S
DODGE CENTER   CLEAR     72  48  43 S17G24    29.81R
WINONA         CLEAR     73  46  38 S7G16     29.81R
AUSTIN         CLEAR     68  50  52 S14       29.82S
PRESTON        CLEAR     68  49  50 S16       29.85R
$$
ABBREVIATIONS USED IN REMARKS
   TC - TEMPERATURES IN CELSIUS
  WCI - WIND CHILL INDEX
   HX - HEAT INDEX
  VSB - VISIBILITY
$$


USA.gov is the U.S. government's official web portal to all federal, state and local government web resources and services.